[[{"header":{"parameterUnit":"m.s-1","parameterCategory":2,"la1":30.2991,"la2":30.254,"lo1":-89.0895,"lo2":-89.0444,"dy":0.0017,"dx":0.0017,"nx":28,"ny":28,"refTime":"2025-05-26T21:00:00:Z","depth":"0","parameterNumber":2,"parameterNumberName":"U-component_of_CURRENTS"},"data":[0,0,0,0,0,0,0,0,0,0,0,0,0,0,0,0,0,0,0,0,0,0,0,0,0,0,0,0,0,0,0,0,0,0,0,0,0,0,0,0,0,0,0,0,0,0,0,0,0,0,0,0,0,0,0,0,0,0,-0.3467,-0.347,0,-0.3636,-0.3638,-0.3639,-0.3781,-0.3783,-0.3785,-0.3787,-0.3796,-0.3794,-0.3792,0,0,0,0,0,0,0,0,0,0,0,0,0,-0.32,-0.3204,-0.3467,-0.347,-0.3472,-0.3636,-0.3638,-0.3639,-0.3781,-0.3783,-0.3786,-0.3788,-0.3796,-0.3794,-0.3792,0,0,0,0,0,0,0,0,0,0,0,0,0,-0.333,-0.3205,-0.3466,-0.3568,-0.3579,-0.3636,-0.3638,-0.364,-0.378,-0.3783,-0.3787,-0.379,-0.3797,-0.3794,-0.3792,-0.3709,0,0,-0.3783,-0.3782,0,0,0,0,0,0,0,0,-0.3323,-0.3339,-0.355,-0.3561,-0.3574,-0.3697,-0.3547,-0.3658,-0.3779,-0.3696,-0.3788,-0.3791,-0.375,-0.3751,-0.3768,-0.371,-0.371,-0.3783,-0.3781,-0.378,-0.3779,0,0,0,0,0,0,0,-0.3314,-0.3332,-0.3527,-0.3553,-0.3568,-0.3583,-0.3605,-0.3569,-0.3694,-0.3704,-0.3716,-0.3745,-0.3755,-0.377,-0.3769,-0.371,-0.3783,-0.3781,-0.3779,-0.3778,-0.3535,-0.353,0,0,0,0,0,0,-0.3308,-0.3324,-0.3522,-0.3533,-0.3462,-0.3586,-0.361,-0.3648,-0.3699,-0.3713,-0.3742,-0.3751,-0.3774,-0.3772,-0.377,-0.3702,-0.378,-0.3778,-0.3776,-0.354,-0.3534,-0.3529,0,0,0,0,0,0,-0.3301,-0.3324,-0.3515,-0.3437,-0.3464,-0.3588,-0.3629,-0.365,-0.3677,-0.3731,-0.3741,-0.375,-0.3776,-0.3773,-0.3707,-0.3702,-0.3777,-0.3774,-0.3545,-0.3538,-0.3531,-0.3548,0,0,0,0,0,0,-0.3293,-0.332,-0.3328,-0.3437,-0.3468,-0.352,-0.3628,-0.3651,-0.3693,-0.3706,-0.3739,-0.3745,-0.3778,-0.371,-0.3704,-0.37,-0.3772,-0.3552,-0.3542,-0.3534,-0.3554,-0.3542,-0.3533,0,0,0,0,0,-0.3283,-0.3288,-0.3327,-0.3351,-0.3481,-0.3518,-0.3531,-0.3627,-0.369,-0.3668,-0.3687,-0.3744,-0.3649,-0.3704,-0.3698,-0.3693,-0.3556,-0.3545,-0.3534,-0.3558,-0.3544,-0.3533,0,0,0,0,0,0,-0.3189,-0.3307,-0.3352,-0.3398,-0.3438,-0.3544,-0.3548,-0.3609,-0.3613,-0.3631,-0.368,-0.3681,-0.3625,-0.3614,-0.3674,-0.358,-0.3611,-0.3598,-0.3631,-0.3618,-0.3608,-0.3652,-0.377,0,0,0,0,0,-0.3166,-0.3195,-0.3295,-0.3321,-0.3342,-0.3435,-0.3463,-0.3525,-0.356,-0.3572,-0.3594,-0.3591,-0.3568,-0.3561,-0.3528,-0.3469,-0.3471,-0.3451,-0.344,-0.3432,-0.3452,-0.3435,-0.3429,-0.3493,-0.3493,-0.3493,0,0,-0.3142,-0.3206,-0.3226,-0.3299,-0.3347,-0.3383,-0.3457,-0.3492,-0.3525,-0.356,-0.3569,-0.3547,-0.3534,-0.3487,-0.3461,-0.3489,-0.3399,-0.3419,-0.3414,-0.3438,-0.3424,-0.3419,-0.3415,-0.3486,-0.3487,-0.3488,0,0,-0.3107,-0.3154,-0.317,-0.3202,-0.3269,-0.3322,-0.3325,-0.3406,-0.3437,-0.342,-0.3462,-0.3429,-0.3389,-0.3403,-0.3401,-0.329,-0.3336,-0.3263,-0.3273,-0.3255,-0.3253,-0.3251,-0.3211,-0.3206,-0.3272,-0.3272,-0.3272,0,-0.3074,-0.3128,-0.3168,-0.3196,-0.3236,-0.3294,-0.3325,-0.3349,-0.3395,-0.3407,-0.3411,-0.3373,-0.3364,-0.3349,-0.3323,-0.3283,-0.3267,-0.3348,-0.3254,-0.3252,-0.325,-0.321,-0.3204,-0.3272,-0.3272,-0.3272,-0.3272,0,-0.3069,-0.3109,-0.3111,-0.3179,-0.3201,-0.3223,-0.3284,-0.3286,-0.3322,-0.3363,-0.3329,-0.3301,-0.3297,-0.327,-0.3278,-0.325,-0.3238,-0.3246,-0.3318,-0.3247,-0.3205,-0.3199,-0.3271,-0.3271,-0.3271,-0.3271,0,0,-0.3009,-0.3098,-0.3097,-0.3136,-0.3203,-0.3225,-0.3249,-0.3291,-0.3322,-0.3309,-0.3337,-0.3284,-0.3285,-0.3276,-0.3266,-0.3253,-0.3214,-0.325,-0.3249,-0.3266,-0.3157,-0.3037,-0.3019,-0.322,-0.322,-0.322,-0.3125,0,-0.2996,-0.305,-0.3099,-0.3141,-0.3177,-0.3231,-0.3253,-0.329,-0.3308,-0.3324,-0.3307,-0.3299,-0.3283,-0.3277,-0.3262,-0.3237,-0.3202,-0.3238,-0.3174,-0.3172,-0.3123,-0.3009,-0.289,-0.2786,-0.3119,-0.3118,-0.3117,0,-0.2973,-0.3022,-0.307,-0.3154,-0.3173,-0.3198,-0.3252,-0.3282,-0.3313,-0.3326,-0.3324,-0.3319,-0.3302,-0.3286,-0.3226,-0.3252,-0.32,-0.317,-0.3166,-0.3056,-0.3041,-0.2908,-0.2763,-0.2755,-0.3108,-0.3109,-0.3109,0,-0.2908,-0.2994,-0.3033,-0.3063,-0.316,-0.3181,-0.3224,-0.3271,-0.3292,-0.3325,-0.3331,-0.3323,-0.3303,-0.3262,-0.3197,-0.3216,-0.312,-0.3138,-0.2969,-0.296,-0.2846,-0.2826,-0.2739,-0.307,-0.3071,-0.3071,-0.3071,0,-0.2875,-0.2898,-0.3006,-0.3026,-0.306,-0.3147,-0.3174,-0.3216,-0.327,-0.3282,-0.332,-0.3302,-0.3296,-0.3245,-0.3195,-0.3049,-0.311,-0.2947,-0.2921,-0.2835,-0.2817,-0.2797,-0.2843,-0.3067,-0.3068,-0.3069,-0.3069,0,-0.2774,-0.2856,-0.2897,-0.3002,-0.3028,-0.3044,-0.3132,-0.315,-0.322,-0.3236,-0.3244,-0.3274,-0.3198,-0.3159,-0.3081,-0.3013,-0.2855,-0.2841,-0.2725,-0.2685,-0.2511,-0.2561,-0.2456,-0.2382,-0.2638,-0.2634,-0.2631,0,-0.2721,-0.2736,-0.2839,-0.2854,-0.2892,-0.2943,-0.2973,-0.3088,-0.312,-0.3195,-0.3188,-0.3149,-0.3054,-0.2897,-0.279,-0.2646,-0.2683,-0.2472,-0.2475,-0.2456,-0.2496,-0.255,-0.2501,-0.2319,-0.2313,-0.2309,-0.2305,0,-0.2593,-0.2631,-0.2664,-0.2711,-0.2748,-0.2796,-0.2861,-0.2886,-0.3015,-0.3002,-0.2973,-0.2903,-0.2781,-0.2579,-0.243,-0.2342,-0.2421,-0.2372,-0.2392,-0.2255,-0.2271,-0.2201,-0.243,-0.2266,-0.227,-0.2273,-0.2275,-0.2276,-0.2459,-0.245,-0.25,-0.2523,-0.2575,-0.2611,-0.2531,-0.2607,-0.2591,-0.2464,-0.2676,-0.2427,-0.2457,-0.22,-0.2117,-0.1983,-0.2075,-0.1942,-0.2008,-0.2067,-0.1981,-0.2099,-0.1885,-0.1887,-0.1889,-0.189,-0.1891,0,-0.2274,-0.2289,-0.2307,-0.2325,-0.228,-0.2385,-0.24,-0.2243,-0.2077,-0.2008,-0.1907,-0.1898,-0.1805,-0.1804,-0.1777,-0.1681,-0.1661,-0.1664,-0.1742,-0.171,-0.1828,-0.1798,-0.1507,-0.1507,-0.1507,-0.1507,-0.1507,-0.1507,-0.2177,-0.2124,-0.2146,-0.2011,-0.1998,-0.1805,-0.1728,-0.1547,-0.1395,-0.1086,-0.0937,-0.0929,-0.1295,-0.172,-0.1701,-0.1607,-0.1604,-0.1537,-0.1588,-0.1725,-0.1758,-0.179,-0.1771,-0.1479,-0.1479,-0.1397,-0.1397,-0.1397]},{"header":{"parameterUnit":"m.s-1","parameterCategory":2,"la1":30.2991,"la2":30.254,"lo1":-89.0895,"lo2":-89.0444,"dy":0.0017,"dx":0.0017,"nx":28,"ny":28,"refTime":"2025-05-26T21:00:00:Z","depth":"0","parameterNumber":3,"parameterNumberName":"V-component_of_CURRENTS"},"data":[0,0,0,0,0,0,0,0,0,0,0,0,0,0,0,0,0,0,0,0,0,0,0,0,0,0,0,0,0,0,0,0,0,0,0,0,0,0,0,0,0,0,0,0,0,0,0,0,0,0,0,0,0,0,0,0,0,0,-0.028,-0.0278,0,-0.0087,-0.0084,-0.0082,0.0088,0.009,0.0091,0.0093,0.0314,0.0318,0.0323,0,0,0,0,0,0,0,0,0,0,0,0,0,-0.0424,-0.0423,-0.028,-0.0278,-0.0275,-0.0087,-0.0084,-0.0081,0.0088,0.009,0.0092,0.0094,0.0313,0.0318,0.0323,0,0,0,0,0,0,0,0,0,0,0,0,0,-0.0307,-0.0422,-0.028,-0.017,-0.0159,-0.0088,-0.0084,-0.0081,0.0087,0.009,0.0092,0.0095,0.0311,0.0317,0.0324,0.0311,0,0,0.0343,0.0346,0,0,0,0,0,0,0,0,-0.0314,-0.0302,-0.0189,-0.0178,-0.0165,-0.0023,-0.0054,0.0051,0.0087,-0.0003,0.0093,0.0096,0.02,0.0216,0.025,0.0322,0.0331,0.0344,0.0348,0.0351,0.0352,0,0,0,0,0,0,0,-0.0323,-0.0309,-0.0201,-0.0187,-0.0172,-0.0104,-0.0085,-0.0033,0.0084,0.0005,0.0017,0.0033,0.0208,0.0243,0.0256,0.0335,0.0344,0.0349,0.0353,0.0356,0.0402,0.0399,0,0,0,0,0,0,-0.0359,-0.0317,-0.0207,-0.0195,-0.0237,-0.0104,-0.0083,-0.0069,0.0083,0.0108,0.0031,0.004,0.0231,0.0249,0.0265,0.0281,0.035,0.0357,0.036,0.0405,0.0401,0.0399,0,0,0,0,0,0,-0.0362,-0.0351,-0.0215,-0.0253,-0.0231,-0.0105,-0.0091,-0.0067,-0.0027,0.0102,0.0129,0.0046,0.0234,0.0256,0.029,0.029,0.0359,0.0365,0.0408,0.0404,0.04,0.0299,0,0,0,0,0,0,-0.0368,-0.0354,-0.0359,-0.0256,-0.0231,-0.0188,-0.0093,-0.0065,-0.0022,-0.0007,0.0123,0.0147,0.0238,0.0279,0.0296,0.03,0.037,0.0411,0.0406,0.0401,0.0305,0.0292,0.028,0,0,0,0,0,-0.0373,-0.0387,-0.0361,-0.0347,-0.0242,-0.019,-0.0171,-0.007,-0.0025,-0.0022,0.0056,0.0144,0.0261,0.0282,0.0303,0.0309,0.0413,0.0407,0.0402,0.0311,0.0294,0.028,0,0,0,0,0,0,-0.0446,-0.0368,-0.0337,-0.0325,-0.0274,-0.0162,-0.0147,-0.0091,-0.0026,-0.001,0.011,0.0137,0.0168,0.0227,0.0247,0.0299,0.0351,0.0349,0.0275,0.026,0.0248,0.0246,0.0376,0,0,0,0,0,-0.0473,-0.0464,-0.0385,-0.038,-0.036,-0.0264,-0.0232,-0.017,-0.0098,-0.0064,0.002,0.0097,0.0156,0.0198,0.0253,0.0277,0.0354,0.0289,0.0276,0.0266,0.0272,0.0361,0.0359,0.0379,0.0379,0.0379,0,0,-0.05,-0.0458,-0.0451,-0.0396,-0.0343,-0.0323,-0.0237,-0.02,-0.0175,-0.0056,-0.0011,0.0052,0.0145,0.0181,0.0201,0.0238,0.0295,0.0258,0.0249,0.0262,0.0355,0.0354,0.0353,0.0375,0.0376,0.0376,0,0,-0.0551,-0.0517,-0.0527,-0.0494,-0.0435,-0.0377,-0.038,-0.029,-0.0242,-0.0209,-0.0116,-0.0063,0.0022,0.0102,0.0152,0.0092,0.0216,0.0099,0.0058,0.0144,0.0144,0.0146,0.0231,0.0241,0.0106,0.0106,0.0105,0,-0.0587,-0.0585,-0.0525,-0.0524,-0.0501,-0.0414,-0.0418,-0.0364,-0.0276,-0.0243,-0.0213,-0.0082,-0.0006,0.0066,0.005,0.0073,0.0135,0.0118,0.0133,0.0136,0.0139,0.0227,0.0239,0.01,0.0101,0.0101,0.0102,0,-0.0638,-0.0638,-0.0644,-0.0613,-0.0587,-0.058,-0.0504,-0.0475,-0.0417,-0.0348,-0.0285,-0.0189,-0.0098,-0.0077,-0.0023,0.0031,0.0071,0.0101,0.0182,0.0132,0.0226,0.0241,0.0092,0.0094,0.0096,0.0097,0,0,-0.0706,-0.0686,-0.0687,-0.0691,-0.0633,-0.0616,-0.059,-0.0531,-0.0495,-0.0422,-0.0368,-0.0277,-0.0212,-0.0157,-0.0081,-0.0008,0.0066,0.0047,0.0054,0.0151,0.0257,0.0324,0.0348,0.0102,0.0104,0.0106,0.0311,0,-0.0764,-0.08,-0.076,-0.0783,-0.0794,-0.0714,-0.0692,-0.0626,-0.055,-0.048,-0.037,-0.0299,-0.0244,-0.0201,-0.0122,0.0023,0.0101,0.0008,0.0274,0.0283,0.0366,0.0366,0.0431,0.0622,0.0326,0.0329,0.0331,0,-0.0822,-0.0838,-0.0882,-0.0865,-0.086,-0.0854,-0.0791,-0.0757,-0.0637,-0.0573,-0.0476,-0.0381,-0.026,-0.0217,0.0018,-0.0045,0.009,0.0199,0.0211,0.0325,0.0378,0.0624,0.0662,0.0847,0.0355,0.0353,0.0352,0,-0.0903,-0.0916,-0.0959,-0.0954,-0.0923,-0.0918,-0.089,-0.0791,-0.0749,-0.0628,-0.0569,-0.0418,-0.0317,-0.0152,0.0076,0.005,0.0345,0.0347,0.0536,0.0543,0.0679,0.0694,0.095,0.0509,0.0508,0.0508,0.0507,0,-0.0978,-0.1006,-0.1003,-0.1026,-0.1057,-0.1,-0.0991,-0.093,-0.083,-0.0751,-0.0626,-0.0515,-0.0296,-0.0098,0.0078,0.0371,0.0359,0.0543,0.0606,0.064,0.0649,0.0881,0.093,0.0515,0.0514,0.0512,0.0511,0,-0.1055,-0.1057,-0.1103,-0.11,-0.1101,-0.112,-0.1073,-0.1049,-0.0942,-0.0832,-0.0796,-0.0569,-0.0297,-0.0064,0.0248,0.04,0.0783,0.0751,0.0775,0.0836,0.115,0.1188,0.15,0.1629,0.0984,0.0987,0.099,0,-0.1096,-0.1133,-0.117,-0.12,-0.1203,-0.1215,-0.1213,-0.1124,-0.107,-0.0835,-0.0776,-0.0507,-0.0251,0.0214,0.0502,0.0835,0.0957,0.1078,0.1035,0.1199,0.1288,0.1306,0.1392,0.1177,0.1181,0.1184,0.1186,0,-0.1164,-0.1179,-0.1215,-0.1287,-0.1312,-0.1318,-0.129,-0.1242,-0.1081,-0.0889,-0.06,-0.038,0.0015,0.0436,0.0817,0.1008,0.1222,0.1152,0.1335,0.1475,0.1502,0.1646,0.1003,0.1214,0.1212,0.121,0.1208,0.1207,-0.1195,-0.1243,-0.1292,-0.1342,-0.1381,-0.1352,-0.1258,-0.1147,-0.0935,-0.0545,-0.0404,0.0076,0.0437,0.0992,0.1182,0.1557,0.1482,0.1691,0.173,0.1739,0.1848,0.1257,0.1521,0.152,0.1519,0.1518,0.1518,0,-0.1192,-0.1254,-0.1333,-0.135,-0.1336,-0.1354,-0.1246,-0.1059,-0.0685,-0.0357,0.0047,0.0724,0.1176,0.1469,0.1893,0.2126,0.2164,0.224,0.2291,0.2357,0.1872,0.1864,0.2198,0.2198,0.2197,0.2197,0.2197,0.2197,-0.1191,-0.1248,-0.1286,-0.1263,-0.1249,-0.1098,-0.0965,-0.0679,-0.0403,0.0258,0.076,0.1088,0.1522,0.2172,0.259,0.2631,0.2838,0.2812,0.292,0.2578,0.253,0.2483,0.2491,0.2951,0.2952,0.3414,0.3418,0.3422]}],[{"header":{"parameterUnit":"m.s-1","parameterCategory":2,"la1":30.2991,"la2":30.254,"lo1":-89.0895,"lo2":-89.0444,"dy":0.0017,"dx":0.0017,"nx":28,"ny":28,"refTime":"2025-05-26T21:00:00:Z","depth":"2","parameterNumber":2,"parameterNumberName":"U-component_of_CURRENTS"},"data":[0,0,0,0,0,0,0,0,0,0,0,0,0,0,0,0,0,0,0,0,0,0,0,0,0,0,0,0,0,0,0,0,0,0,0,0,0,0,0,0,0,0,0,0,0,0,0,0,0,0,0,0,0,0,0,0,0,0,-0.2979,-0.298,0,-0.3004,-0.3004,-0.3004,-0.2988,-0.2988,-0.2988,-0.2987,-0.3006,-0.3007,-0.3008,0,0,0,0,0,0,0,0,0,0,0,0,0,-0.2872,-0.2874,-0.2979,-0.298,-0.298,-0.3004,-0.3004,-0.3004,-0.2988,-0.2988,-0.2988,-0.2987,-0.3006,-0.3007,-0.3008,0,0,0,0,0,0,0,0,0,0,0,0,0,-0.2906,-0.2874,-0.2979,-0.2979,-0.2979,-0.3004,-0.3004,-0.3004,-0.2989,-0.2988,-0.2987,-0.2987,-0.3006,-0.3007,-0.3008,-0.3027,0,0,-0.3012,-0.3013,0,0,0,0,0,0,0,0,-0.2904,-0.2909,-0.2978,-0.2979,-0.2979,-0.2996,-0.2974,-0.3013,-0.2989,-0.298,-0.2987,-0.2987,-0.3006,-0.3007,-0.3007,-0.3028,-0.3028,-0.3012,-0.3013,-0.3014,-0.3014,0,0,0,0,0,0,0,-0.2902,-0.2908,-0.2985,-0.2979,-0.298,-0.2962,-0.2966,-0.298,-0.2992,-0.2981,-0.2981,-0.2991,-0.3005,-0.3006,-0.3007,-0.3029,-0.3012,-0.3013,-0.3014,-0.3015,-0.3041,-0.3041,0,0,0,0,0,0,-0.2911,-0.2906,-0.2984,-0.2986,-0.2944,-0.2965,-0.2969,-0.2988,-0.2992,-0.2994,-0.2991,-0.299,-0.3004,-0.3006,-0.3008,-0.3024,-0.3014,-0.3015,-0.3015,-0.3041,-0.3041,-0.3041,0,0,0,0,0,0,-0.2908,-0.2918,-0.2983,-0.2949,-0.2957,-0.2968,-0.2989,-0.2989,-0.2997,-0.3001,-0.3001,-0.3001,-0.3003,-0.3006,-0.3022,-0.3025,-0.3015,-0.3016,-0.3041,-0.3041,-0.3041,-0.3061,0,0,0,0,0,0,-0.2905,-0.2917,-0.2928,-0.295,-0.2959,-0.2998,-0.299,-0.299,-0.3006,-0.3004,-0.3009,-0.301,-0.3003,-0.3021,-0.3024,-0.3027,-0.3017,-0.3041,-0.3041,-0.3041,-0.306,-0.3061,-0.3062,0,0,0,0,0,-0.2901,-0.2914,-0.2929,-0.2938,-0.2977,-0.2999,-0.3001,-0.3004,-0.3007,-0.3009,-0.3013,-0.301,-0.3021,-0.3022,-0.3026,-0.3029,-0.3041,-0.3041,-0.3041,-0.306,-0.3061,-0.3062,0,0,0,0,0,0,-0.2867,-0.2915,-0.2931,-0.2957,-0.298,-0.2998,-0.2999,-0.3013,-0.3019,-0.3018,-0.302,-0.3021,-0.3029,-0.303,-0.3031,-0.3033,-0.3027,-0.3027,-0.304,-0.3041,-0.3042,-0.3042,-0.3018,0,0,0,0,0,-0.287,-0.2891,-0.2935,-0.2951,-0.2966,-0.2989,-0.2998,-0.3008,-0.3021,-0.3023,-0.3029,-0.3031,-0.3031,-0.3038,-0.3035,-0.3052,-0.3036,-0.3052,-0.3053,-0.3054,-0.3055,-0.3041,-0.3041,-0.304,-0.304,-0.304,0,0,-0.2859,-0.2888,-0.2899,-0.2945,-0.296,-0.2986,-0.2991,-0.301,-0.3028,-0.3026,-0.3041,-0.3037,-0.3035,-0.3039,-0.3044,-0.3044,-0.3041,-0.3054,-0.3055,-0.3056,-0.304,-0.304,-0.3041,-0.304,-0.304,-0.304,0,0,-0.2846,-0.2878,-0.2893,-0.2921,-0.2959,-0.2978,-0.2991,-0.3022,-0.3029,-0.3053,-0.3045,-0.3047,-0.3059,-0.3052,-0.3051,-0.3062,-0.3044,-0.3059,-0.3074,-0.306,-0.306,-0.306,-0.3023,-0.302,-0.3065,-0.3065,-0.3065,0,-0.2831,-0.2866,-0.2897,-0.2924,-0.2948,-0.298,-0.3006,-0.3022,-0.3051,-0.3062,-0.3057,-0.3063,-0.3062,-0.3066,-0.3064,-0.3064,-0.3047,-0.3071,-0.3062,-0.3061,-0.3061,-0.3024,-0.3019,-0.3066,-0.3066,-0.3066,-0.3066,0,-0.2835,-0.2868,-0.2877,-0.2927,-0.2954,-0.2978,-0.302,-0.3041,-0.3059,-0.3076,-0.3085,-0.3078,-0.3081,-0.3077,-0.3077,-0.3074,-0.3057,-0.3061,-0.306,-0.3062,-0.3022,-0.3018,-0.3067,-0.3067,-0.3067,-0.3067,0,0,-0.2784,-0.2867,-0.2867,-0.2901,-0.2963,-0.2984,-0.3021,-0.3062,-0.3084,-0.3096,-0.3115,-0.3107,-0.3105,-0.3103,-0.3096,-0.3087,-0.3063,-0.3077,-0.3076,-0.3043,-0.3015,-0.2904,-0.2888,-0.3069,-0.3068,-0.3068,-0.2983,0,-0.2777,-0.2828,-0.2873,-0.2917,-0.2952,-0.3003,-0.3036,-0.3075,-0.31,-0.3124,-0.3121,-0.3127,-0.3115,-0.3115,-0.3104,-0.3082,-0.3054,-0.3084,-0.3015,-0.3013,-0.2917,-0.2881,-0.2683,-0.2582,-0.2978,-0.2977,-0.2977,0,-0.2762,-0.2804,-0.2851,-0.2933,-0.2951,-0.298,-0.3041,-0.3075,-0.312,-0.3139,-0.3149,-0.3151,-0.3144,-0.3129,-0.308,-0.3102,-0.3056,-0.3028,-0.3024,-0.2912,-0.2894,-0.2646,-0.2558,-0.2969,-0.2969,-0.297,-0.297,0,-0.2704,-0.2784,-0.2821,-0.2849,-0.2944,-0.2969,-0.3013,-0.3071,-0.3098,-0.3142,-0.3157,-0.3159,-0.3146,-0.3112,-0.3056,-0.3072,-0.2987,-0.3003,-0.285,-0.2841,-0.2652,-0.2627,-0.2946,-0.2947,-0.2947,-0.2947,-0.2947,0,-0.2677,-0.2701,-0.2798,-0.2818,-0.2856,-0.2938,-0.2974,-0.3021,-0.3083,-0.3096,-0.315,-0.3138,-0.3141,-0.3098,-0.3055,-0.2924,-0.298,-0.2833,-0.2807,-0.2651,-0.2628,-0.2957,-0.2959,-0.2944,-0.2944,-0.2945,-0.2946,0,-0.2591,-0.2663,-0.2705,-0.2803,-0.2829,-0.2849,-0.294,-0.2963,-0.304,-0.3056,-0.3068,-0.3112,-0.3046,-0.302,-0.295,-0.2891,-0.2804,-0.2738,-0.2542,-0.2494,-0.2668,-0.2673,-0.2564,-0.2559,-0.2555,-0.2552,-0.2549,0,-0.2548,-0.2563,-0.2658,-0.2671,-0.2709,-0.2762,-0.2793,-0.2909,-0.2934,-0.3012,-0.3,-0.298,-0.2901,-0.2773,-0.2667,-0.2543,-0.2656,-0.231,-0.2301,-0.264,-0.2627,-0.2638,-0.2648,-0.2054,-0.2048,-0.2042,-0.2038,0,-0.2443,-0.2478,-0.2508,-0.2545,-0.2579,-0.262,-0.2677,-0.2697,-0.2811,-0.2833,-0.2811,-0.2761,-0.2639,-0.2415,-0.2285,-0.2201,-0.2323,-0.2193,-0.2582,-0.2189,-0.2154,-0.2144,-0.2171,-0.1989,-0.1994,-0.1998,-0.2,-0.2002,-0.2334,-0.2325,-0.2363,-0.2377,-0.2421,-0.2429,-0.2386,-0.2465,-0.2474,-0.245,-0.2543,-0.2398,-0.2341,-0.2012,-0.1887,-0.1802,-0.1961,-0.1895,-0.1914,-0.1939,-0.1902,-0.1863,-0.1635,-0.1638,-0.164,-0.1642,-0.1644,0,-0.2175,-0.218,-0.2188,-0.2187,-0.2147,-0.2241,-0.2256,-0.2178,-0.2106,-0.2152,-0.2101,-0.1851,-0.1686,-0.1641,-0.1419,-0.1371,-0.1382,-0.1329,-0.1355,-0.1402,-0.1445,-0.1386,-0.0981,-0.0979,-0.0977,-0.0975,0,0,-0.2089,-0.2031,-0.2035,-0.1901,-0.1893,-0.1772,-0.1732,-0.167,-0.1649,-0.1555,-0.15,-0.1599,-0.1589,-0.1295,-0.1214,-0.1061,-0.1225,-0.1004,-0.1534,-0.1611,-0.1651,-0.1762,-0.1723,0,0,0,0,0]},{"header":{"parameterUnit":"m.s-1","parameterCategory":2,"la1":30.2991,"la2":30.254,"lo1":-89.0895,"lo2":-89.0444,"dy":0.0017,"dx":0.0017,"nx":28,"ny":28,"refTime":"2025-05-26T21:00:00:Z","depth":"2","parameterNumber":3,"parameterNumberName":"V-component_of_CURRENTS"},"data":[0,0,0,0,0,0,0,0,0,0,0,0,0,0,0,0,0,0,0,0,0,0,0,0,0,0,0,0,0,0,0,0,0,0,0,0,0,0,0,0,0,0,0,0,0,0,0,0,0,0,0,0,0,0,0,0,0,0,-0.0367,-0.0366,0,-0.0272,-0.0271,-0.0269,-0.0211,-0.021,-0.021,-0.021,-0.0054,-0.005,-0.0046,0,0,0,0,0,0,0,0,0,0,0,0,0,-0.0446,-0.0445,-0.0367,-0.0366,-0.0365,-0.0272,-0.0271,-0.0269,-0.0211,-0.021,-0.021,-0.021,-0.0055,-0.005,-0.0046,0,0,0,0,0,0,0,0,0,0,0,0,0,-0.0387,-0.0445,-0.0367,-0.0325,-0.032,-0.0272,-0.027,-0.0269,-0.0211,-0.021,-0.021,-0.021,-0.0057,-0.0051,-0.0045,-0.0016,0,0,-0.0027,-0.0025,0,0,0,0,0,0,0,0,-0.039,-0.0384,-0.0332,-0.0328,-0.0323,-0.0253,-0.0241,-0.0181,-0.0211,-0.0252,-0.021,-0.021,-0.0116,-0.0105,-0.0088,-0.0009,-0.0002,-0.0027,-0.0023,-0.002,-0.0019,0,0,0,0,0,0,0,-0.0394,-0.0387,-0.0329,-0.0331,-0.0325,-0.0293,-0.0284,-0.0229,-0.0185,-0.0248,-0.0244,-0.0234,-0.0112,-0.0094,-0.0083,0.0,-0.0027,-0.0022,-0.0018,-0.0016,0.0132,0.0132,0,0,0,0,0,0,-0.0411,-0.0391,-0.0332,-0.0326,-0.0357,-0.0292,-0.0282,-0.0275,-0.0187,-0.0174,-0.0235,-0.0232,-0.0104,-0.009,-0.0078,-0.0034,-0.0021,-0.0015,-0.0012,0.0132,0.0132,0.0132,0,0,0,0,0,0,-0.0413,-0.0406,-0.0336,-0.0357,-0.0346,-0.0291,-0.0284,-0.0274,-0.0253,-0.0178,-0.0163,-0.0225,-0.0103,-0.0086,-0.0029,-0.0028,-0.0012,-0.0007,0.0131,0.0132,0.0132,0.0051,0,0,0,0,0,0,-0.0415,-0.0408,-0.0412,-0.0358,-0.0345,-0.0314,-0.0284,-0.0272,-0.0249,-0.0244,-0.0164,-0.015,-0.0101,-0.0038,-0.0023,-0.0019,-0.0002,0.0131,0.0131,0.0132,0.0053,0.0048,0.0045,0,0,0,0,0,-0.0419,-0.0429,-0.0413,-0.0406,-0.0352,-0.0314,-0.0305,-0.0264,-0.0249,-0.0244,-0.0188,-0.0152,-0.0023,-0.0033,-0.0016,-0.001,0.013,0.0131,0.0132,0.0055,0.0049,0.0045,0,0,0,0,0,0,-0.0469,-0.0422,-0.0404,-0.0401,-0.0363,-0.0305,-0.0301,-0.0269,-0.0222,-0.0218,-0.0146,-0.0127,-0.008,-0.003,-0.0044,0.0036,0.006,0.0064,-0.0005,-0.001,-0.0014,-0.0035,0.0003,0,0,0,0,0,-0.0483,-0.0477,-0.0425,-0.0424,-0.0409,-0.0355,-0.0337,-0.0307,-0.0257,-0.0237,-0.018,-0.0118,-0.0063,-0.0026,0.0025,0.0073,0.0126,0.009,0.0085,0.0081,0.0078,0.0159,0.0161,0.0135,0.0135,0.0135,0,0,-0.0504,-0.0478,-0.0475,-0.0434,-0.0404,-0.0388,-0.0343,-0.032,-0.0303,-0.0226,-0.0189,-0.0134,-0.0055,-0.0009,0.0018,0.0035,0.0117,0.0083,0.0078,0.0077,0.016,0.0162,0.0164,0.0136,0.0136,0.0136,0,0,-0.0544,-0.052,-0.0527,-0.0498,-0.0457,-0.042,-0.0416,-0.0359,-0.033,-0.0285,-0.0228,-0.017,-0.0088,-0.0028,0.0012,0.0021,0.0084,0.0035,0.0007,0.0085,0.0088,0.0091,0.0156,0.0165,0.0042,0.0041,0.0041,0,-0.0572,-0.0571,-0.0524,-0.052,-0.0505,-0.0439,-0.044,-0.0399,-0.0331,-0.0302,-0.0285,-0.0158,-0.0095,-0.0023,-0.0024,0.0012,0.0059,0.0015,0.0078,0.0083,0.0087,0.0153,0.0164,0.0038,0.0038,0.0038,0.0039,0,-0.0609,-0.0609,-0.0612,-0.0585,-0.056,-0.0552,-0.049,-0.046,-0.0417,-0.0366,-0.0296,-0.0208,-0.0128,-0.0101,-0.006,0.0003,0.0026,0.0054,0.0084,0.0084,0.0154,0.0168,0.0032,0.0034,0.0035,0.0036,0,0,-0.0669,-0.0645,-0.0646,-0.0648,-0.0594,-0.058,-0.0548,-0.0494,-0.0468,-0.0395,-0.0351,-0.0255,-0.0202,-0.0152,-0.0086,-0.0019,0.0051,0.0021,0.0027,0.0072,0.0213,0.0243,0.0261,0.0085,0.0087,0.0089,0.0247,0,-0.0713,-0.0736,-0.0699,-0.0713,-0.0719,-0.065,-0.0626,-0.0566,-0.05,-0.044,-0.0336,-0.0274,-0.0221,-0.0185,-0.0108,0.001,0.0082,0.0005,0.0218,0.0224,0.0241,0.0277,0.024,0.0379,0.0261,0.0263,0.0265,0,-0.0758,-0.0768,-0.0798,-0.078,-0.0774,-0.0767,-0.0712,-0.0679,-0.0571,-0.0517,-0.0425,-0.0343,-0.0229,-0.0191,0.0017,-0.0039,0.0076,0.0167,0.0176,0.0242,0.0279,0.0364,0.0408,0.0287,0.0286,0.0284,0.0282,0,-0.0831,-0.0833,-0.0865,-0.0859,-0.0826,-0.0822,-0.0796,-0.0709,-0.0674,-0.0565,-0.0521,-0.0376,-0.0293,-0.014,0.0052,0.0036,0.0279,0.0291,0.0429,0.0432,0.0463,0.0466,0.0437,0.0437,0.0437,0.0436,0.0436,0,-0.0892,-0.0914,-0.0906,-0.0923,-0.0952,-0.0897,-0.0894,-0.084,-0.0752,-0.0698,-0.0572,-0.0488,-0.0277,-0.011,0.0048,0.0286,0.029,0.0433,0.0482,0.0433,0.0431,0.04,0.0393,0.0442,0.0441,0.044,0.0439,0,-0.0966,-0.096,-0.0997,-0.099,-0.0992,-0.1013,-0.0976,-0.0959,-0.0867,-0.0789,-0.076,-0.0557,-0.0333,-0.0116,0.0157,0.0292,0.0503,0.0585,0.0506,0.0542,0.06,0.0587,0.0752,0.0755,0.0757,0.0759,0.076,0,-0.1005,-0.1034,-0.1065,-0.1095,-0.1098,-0.1113,-0.1116,-0.1036,-0.1,-0.0817,-0.078,-0.0553,-0.0362,0.0039,0.0303,0.0593,0.0588,0.0719,0.0686,0.0605,0.0636,0.062,0.0605,0.0698,0.0699,0.0699,0.07,0,-0.1076,-0.1087,-0.1119,-0.1192,-0.1219,-0.1236,-0.1225,-0.121,-0.1083,-0.0987,-0.0799,-0.0632,-0.0232,0.0092,0.0453,0.0614,0.0663,0.0743,0.0713,0.0612,0.0564,0.059,0.0576,0.0706,0.0706,0.0705,0.0705,0.0705,-0.1121,-0.1168,-0.1215,-0.1278,-0.1316,-0.1337,-0.134,-0.1286,-0.1211,-0.1033,-0.0847,-0.0562,-0.0228,0.0285,0.0542,0.0767,0.0769,0.0821,0.0815,0.0809,0.0763,0.072,0.0883,0.0883,0.0883,0.0884,0.0884,0,-0.1172,-0.122,-0.1293,-0.1359,-0.1411,-0.1408,-0.1391,-0.1348,-0.1251,-0.1046,-0.0842,-0.0448,-0.0072,0.0263,0.0632,0.0857,0.0825,0.088,0.0796,0.0789,0.0784,0.0732,0.0847,0.0847,0.0847,0.0848,0,0,-0.1197,-0.1278,-0.1318,-0.142,-0.1463,-0.1486,-0.1471,-0.1378,-0.1224,-0.1004,-0.0782,-0.0498,-0.005,0.0196,0.0484,0.0677,0.0665,0.0686,0.0695,0.0557,0.0548,0.0736,0.0648,0,0,0,0,0]}],[{"header":{"parameterUnit":"m.s-1","parameterCategory":2,"la1":30.2991,"la2":30.254,"lo1":-89.0895,"lo2":-89.0444,"dy":0.0017,"dx":0.0017,"nx":28,"ny":28,"refTime":"2025-05-26T21:00:00:Z","depth":"4","parameterNumber":2,"parameterNumberName":"U-component_of_CURRENTS"},"data":[0,0,0,0,0,0,0,0,0,0,0,0,0,0,0,0,0,0,0,0,0,0,0,0,0,0,0,0,0,0,0,0,0,0,0,0,0,0,0,0,0,0,0,0,0,0,0,0,0,0,0,0,0,0,0,0,0,0,-0.2096,-0.2097,0,-0.2156,-0.2157,-0.2157,-0.2192,-0.2193,-0.2193,-0.2193,-0.2277,-0.2279,-0.228,0,0,0,0,0,0,0,0,0,0,0,0,0,-0.1988,-0.199,-0.2096,-0.2097,-0.2098,-0.2156,-0.2157,-0.2157,-0.2192,-0.2193,-0.2193,-0.2193,-0.2276,-0.2278,-0.2281,0,0,0,0,0,0,0,0,0,0,0,0,0,-0.2038,-0.199,-0.2095,-0.2124,-0.2127,-0.2156,-0.2157,-0.2157,-0.2192,-0.2193,-0.2193,-0.2194,-0.2275,-0.2278,-0.2281,-0.2287,0,0,-0.2289,-0.2291,0,0,0,0,0,0,0,0,-0.2035,-0.2041,-0.2119,-0.2122,-0.2126,-0.2169,-0.2149,-0.2203,-0.2192,-0.2165,-0.2193,-0.2194,-0.2244,-0.2249,-0.2256,-0.2291,-0.2295,-0.229,-0.2291,-0.2293,-0.2293,0,0,0,0,0,0,0,-0.2031,-0.2039,-0.2117,-0.212,-0.2124,-0.2126,-0.2134,-0.2159,-0.2199,-0.2167,-0.2171,-0.2181,-0.2246,-0.2253,-0.2258,-0.2296,-0.229,-0.2292,-0.2294,-0.2295,-0.243,-0.2432,0,0,0,0,0,0,-0.203,-0.2036,-0.2115,-0.2119,-0.2084,-0.2128,-0.2136,-0.2153,-0.2199,-0.2207,-0.218,-0.2182,-0.2248,-0.2255,-0.2261,-0.2349,-0.2293,-0.2295,-0.2297,-0.2428,-0.2431,-0.2433,0,0,0,0,0,0,-0.2027,-0.2037,-0.2113,-0.208,-0.209,-0.213,-0.2148,-0.2154,-0.22,-0.2209,-0.2217,-0.2225,-0.2249,-0.2257,-0.2323,-0.235,-0.2297,-0.2299,-0.2426,-0.2429,-0.2432,-0.2475,0,0,0,0,0,0,-0.2024,-0.2035,-0.2064,-0.208,-0.2092,-0.2154,-0.2148,-0.2155,-0.2204,-0.2208,-0.2249,-0.2255,-0.225,-0.2318,-0.2325,-0.2352,-0.2301,-0.2424,-0.2428,-0.2431,-0.2471,-0.2479,-0.2485,0,0,0,0,0,-0.202,-0.2046,-0.2065,-0.2075,-0.2124,-0.2156,-0.2163,-0.2189,-0.2206,-0.2232,-0.2267,-0.2256,-0.2345,-0.2323,-0.233,-0.2359,-0.2422,-0.2427,-0.2431,-0.2468,-0.2477,-0.2485,0,0,0,0,0,0,-0.201,-0.2053,-0.2073,-0.2112,-0.2146,-0.2163,-0.2192,-0.2215,-0.2261,-0.2277,-0.2286,-0.2295,-0.2355,-0.2361,-0.2335,-0.241,-0.238,-0.2386,-0.2406,-0.2415,-0.2422,-0.2403,-0.2304,0,0,0,0,0,-0.2023,-0.2056,-0.2094,-0.2127,-0.2149,-0.2182,-0.2206,-0.2228,-0.2262,-0.2285,-0.2315,-0.2347,-0.2372,-0.2399,-0.2419,-0.2471,-0.2444,-0.2494,-0.2501,-0.2507,-0.2499,-0.2492,-0.2497,-0.2447,-0.2447,-0.2447,0,0,-0.2028,-0.2056,-0.2077,-0.2129,-0.2157,-0.2192,-0.2198,-0.2246,-0.2281,-0.2287,-0.2357,-0.2376,-0.2391,-0.2439,-0.2467,-0.2454,-0.2508,-0.2513,-0.2517,-0.2505,-0.2497,-0.2501,-0.2505,-0.245,-0.2449,-0.2449,0,0,-0.2037,-0.2084,-0.2112,-0.2148,-0.2203,-0.2224,-0.225,-0.2297,-0.233,-0.2396,-0.2401,-0.2442,-0.2499,-0.2502,-0.2511,-0.2577,-0.2543,-0.2595,-0.2622,-0.2616,-0.2619,-0.2621,-0.2587,-0.2586,-0.2603,-0.2603,-0.2603,0,-0.2046,-0.2087,-0.2126,-0.2161,-0.2196,-0.2244,-0.2283,-0.232,-0.2385,-0.2414,-0.243,-0.25,-0.2519,-0.2552,-0.2575,-0.2589,-0.2574,-0.2584,-0.2622,-0.2624,-0.2626,-0.259,-0.2588,-0.2606,-0.2605,-0.2605,-0.2605,0,-0.2064,-0.2115,-0.2136,-0.2199,-0.224,-0.2284,-0.2338,-0.2392,-0.2443,-0.2473,-0.2538,-0.2561,-0.2597,-0.2614,-0.2617,-0.2645,-0.2625,-0.2625,-0.2592,-0.2633,-0.2593,-0.259,-0.2609,-0.2608,-0.2608,-0.2607,0,0,-0.2029,-0.2131,-0.2141,-0.2184,-0.2269,-0.23,-0.237,-0.2434,-0.2479,-0.2543,-0.2589,-0.2634,-0.2649,-0.266,-0.2668,-0.267,-0.2671,-0.2662,-0.2661,-0.2612,-0.2641,-0.2466,-0.2446,-0.2683,-0.2683,-0.2683,-0.2605,0,-0.2035,-0.2105,-0.2157,-0.2232,-0.2275,-0.2347,-0.2404,-0.2471,-0.253,-0.2588,-0.2618,-0.2664,-0.2666,-0.269,-0.2693,-0.2682,-0.2668,-0.269,-0.2622,-0.2619,-0.2445,-0.2438,-0.2683,-0.2602,-0.2602,-0.2601,-0.2601,0,-0.2028,-0.2081,-0.2155,-0.2259,-0.2286,-0.2341,-0.2438,-0.2495,-0.2578,-0.2623,-0.2669,-0.2695,-0.2719,-0.2714,-0.2692,-0.2711,-0.2677,-0.2656,-0.2653,-0.2467,-0.2438,-0.2557,-0.2595,-0.2595,-0.2596,-0.2596,-0.2597,0,-0.1968,-0.2076,-0.2139,-0.2176,-0.2297,-0.2351,-0.2417,-0.2509,-0.2556,-0.2643,-0.2677,-0.2714,-0.2729,-0.2711,-0.2674,-0.2693,-0.2625,-0.2643,-0.2442,-0.2429,-0.2592,-0.2591,-0.2604,-0.2604,-0.2605,-0.2605,-0.2605,0,-0.1936,-0.1989,-0.2125,-0.2159,-0.2233,-0.2331,-0.2409,-0.2478,-0.2571,-0.2599,-0.2687,-0.2685,-0.2731,-0.2702,-0.2671,-0.2526,-0.2617,-0.2422,-0.2391,-0.2613,-0.2615,-0.2589,-0.2589,-0.2602,-0.2602,-0.2603,-0.2604,0,-0.185,-0.1945,-0.2023,-0.2163,-0.2209,-0.226,-0.2395,-0.2434,-0.2541,-0.2576,-0.2603,-0.2667,-0.2612,-0.2614,-0.2566,-0.2485,-0.2394,-0.2318,-0.253,-0.2517,-0.2205,-0.2209,-0.2085,-0.2078,-0.2072,-0.2067,-0.2063,0,-0.1806,-0.1843,-0.1998,-0.2037,-0.2106,-0.2203,-0.2256,-0.2396,-0.2424,-0.2523,-0.2507,-0.2514,-0.2523,-0.2296,-0.2339,-0.2236,-0.2212,-0.2158,-0.2199,-0.2166,-0.215,-0.2162,-0.2173,-0.2053,-0.2052,-0.205,-0.2049,0,-0.1712,-0.1787,-0.1845,-0.1926,-0.1999,-0.2063,-0.2148,-0.2153,-0.2279,-0.2408,-0.2323,-0.2277,-0.2203,-0.2151,-0.2075,-0.2016,-0.2198,-0.2096,-0.2109,-0.2147,-0.2127,-0.2119,-0.2137,-0.2028,-0.2031,-0.2033,-0.2034,0,-0.1633,-0.1647,-0.1729,-0.1777,-0.1863,-0.1869,-0.1947,-0.1959,-0.2006,-0.2125,-0.2084,-0.2093,-0.216,-0.2032,-0.197,-0.1888,-0.1869,-0.1821,-0.1848,-0.1871,-0.1839,-0.1785,-0.1529,0,0,0,0,0,-0.1539,-0.1527,-0.1564,-0.1598,-0.1674,-0.1715,-0.1839,-0.1918,-0.2048,-0.1924,-0.1997,-0.1915,-0.1816,-0.1834,-0.1699,-0.188,-0.1883,-0.1719,-0.1847,-0.1914,-0.1938,-0.1922,0,0,0,0,0,0,-0.1472,-0.1502,-0.1503,-0.143,-0.1413,-0.1467,-0.1538,-0.1635,-0.1582,-0.1721,-0.1667,-0.1782,-0.1706,-0.1827,-0.1643,-0.165,-0.1689,-0.175,-0.1744,-0.1901,-0.1923,-0.1942,-0.1933,0,0,0,0,0]},{"header":{"parameterUnit":"m.s-1","parameterCategory":2,"la1":30.2991,"la2":30.254,"lo1":-89.0895,"lo2":-89.0444,"dy":0.0017,"dx":0.0017,"nx":28,"ny":28,"refTime":"2025-05-26T21:00:00:Z","depth":"4","parameterNumber":3,"parameterNumberName":"V-component_of_CURRENTS"},"data":[0,0,0,0,0,0,0,0,0,0,0,0,0,0,0,0,0,0,0,0,0,0,0,0,0,0,0,0,0,0,0,0,0,0,0,0,0,0,0,0,0,0,0,0,0,0,0,0,0,0,0,0,0,0,0,0,0,0,-0.0282,-0.0281,0,-0.0226,-0.0226,-0.0225,-0.0197,-0.0197,-0.0197,-0.0197,-0.0092,-0.0089,-0.0086,0,0,0,0,0,0,0,0,0,0,0,0,0,-0.0316,-0.0316,-0.0282,-0.0281,-0.028,-0.0227,-0.0226,-0.0225,-0.0197,-0.0197,-0.0197,-0.0197,-0.0093,-0.009,-0.0086,0,0,0,0,0,0,0,0,0,0,0,0,0,-0.0284,-0.0316,-0.0282,-0.0261,-0.0258,-0.0227,-0.0226,-0.0225,-0.0197,-0.0197,-0.0197,-0.0197,-0.0094,-0.009,-0.0086,-0.0058,0,0,-0.0073,-0.0071,0,0,0,0,0,0,0,0,-0.0286,-0.0283,-0.0264,-0.0262,-0.0259,-0.0219,-0.0199,-0.0167,-0.0197,-0.0219,-0.0197,-0.0197,-0.0131,-0.0123,-0.0112,-0.0053,-0.0048,-0.0072,-0.007,-0.0068,-0.0067,0,0,0,0,0,0,0,-0.0288,-0.0285,-0.0259,-0.0264,-0.0261,-0.0238,-0.0234,-0.0193,-0.0173,-0.0217,-0.0215,-0.0211,-0.0129,-0.0116,-0.0109,-0.0047,-0.0072,-0.0069,-0.0066,-0.0064,0.006,0.006,0,0,0,0,0,0,-0.0299,-0.0287,-0.0261,-0.0257,-0.0274,-0.0238,-0.0233,-0.0231,-0.0175,-0.0167,-0.021,-0.0209,-0.0124,-0.0114,-0.0105,-0.0068,-0.0068,-0.0064,-0.0061,0.0059,0.006,0.0061,0,0,0,0,0,0,-0.03,-0.0298,-0.0263,-0.0271,-0.0266,-0.0237,-0.0235,-0.023,-0.022,-0.017,-0.0161,-0.0207,-0.0123,-0.0111,-0.007,-0.0063,-0.0062,-0.0058,0.0058,0.0059,0.006,0.0008,0,0,0,0,0,0,-0.0302,-0.0298,-0.0306,-0.0272,-0.0266,-0.025,-0.0235,-0.0229,-0.0218,-0.0216,-0.0164,-0.0154,-0.0122,-0.0076,-0.0065,-0.0057,-0.0055,0.0057,0.0059,0.006,0.0008,0.0007,0.0005,0,0,0,0,0,-0.0303,-0.0313,-0.0306,-0.0303,-0.0275,-0.025,-0.0245,-0.0224,-0.0218,-0.0215,-0.0177,-0.0156,-0.006,-0.0072,-0.006,-0.0051,0.0056,0.0058,0.006,0.0009,0.0007,0.0005,0,0,0,0,0,0,-0.0335,-0.031,-0.0302,-0.0305,-0.0282,-0.0246,-0.0246,-0.0227,-0.0196,-0.0196,-0.0148,-0.0135,-0.0099,-0.0062,-0.0078,-0.0009,0.0003,0.0007,-0.004,-0.0041,-0.0043,-0.0061,-0.0051,0,0,0,0,0,-0.0345,-0.0347,-0.0315,-0.032,-0.0311,-0.0279,-0.0268,-0.0251,-0.0219,-0.0206,-0.0169,-0.0123,-0.0081,-0.0054,-0.0016,0.0025,0.0063,0.0042,0.004,0.0038,0.0034,0.0103,0.0106,0.0066,0.0066,0.0066,0,0,-0.036,-0.0347,-0.0349,-0.0327,-0.031,-0.0299,-0.0273,-0.0261,-0.0248,-0.0198,-0.0172,-0.0133,-0.0073,-0.0034,-0.0012,-0.0002,0.0069,0.0041,0.0038,0.0035,0.0105,0.0109,0.0112,0.0067,0.0067,0.0067,0,0,-0.0388,-0.0379,-0.0386,-0.0369,-0.0345,-0.0322,-0.032,-0.0283,-0.0265,-0.0232,-0.0193,-0.0146,-0.0087,-0.0038,-0.0005,0.0013,0.0052,0.0023,0.0008,0.0075,0.0078,0.0082,0.0126,0.0134,0.003,0.003,0.003,0,-0.0408,-0.0411,-0.0385,-0.0383,-0.0375,-0.0334,-0.0335,-0.0307,-0.0261,-0.0241,-0.0233,-0.0134,-0.0086,-0.0022,-0.0019,0.0009,0.0041,0.0006,0.0071,0.0076,0.008,0.0125,0.0134,0.0027,0.0028,0.0028,0.0028,0,-0.043,-0.0436,-0.044,-0.0424,-0.041,-0.0406,-0.0363,-0.0343,-0.0317,-0.0281,-0.0225,-0.0158,-0.0096,-0.007,-0.004,0.0019,0.0028,0.0052,0.0069,0.0081,0.0127,0.0138,0.0024,0.0025,0.0026,0.0026,0,0,-0.0471,-0.0459,-0.0463,-0.0467,-0.0433,-0.0425,-0.04,-0.0362,-0.0347,-0.0291,-0.0259,-0.0176,-0.0139,-0.0099,-0.0046,0.0013,0.0073,0.0038,0.0043,0.0069,0.02,0.0169,0.0178,0.0103,0.0105,0.0106,0.0216,0,-0.0499,-0.0518,-0.0495,-0.0509,-0.0514,-0.047,-0.0454,-0.0412,-0.0366,-0.0325,-0.0239,-0.0194,-0.0147,-0.0123,-0.0053,0.0038,0.0099,0.0039,0.0196,0.0201,0.0162,0.019,0.0112,0.0224,0.0227,0.0228,0.023,0,-0.0526,-0.0537,-0.0562,-0.0558,-0.0556,-0.0557,-0.0525,-0.0501,-0.0423,-0.0386,-0.0312,-0.025,-0.0152,-0.0122,0.005,0.0005,0.0095,0.0167,0.0174,0.017,0.019,0.0216,0.025,0.0248,0.0247,0.0245,0.0244,0,-0.0573,-0.0582,-0.061,-0.0609,-0.0594,-0.0599,-0.0587,-0.0527,-0.0507,-0.0427,-0.04,-0.0276,-0.0216,-0.0084,0.0066,0.0059,0.0246,0.0264,0.0324,0.0323,0.0339,0.0334,0.0386,0.0386,0.0386,0.0386,0.0385,0,-0.0606,-0.0631,-0.0643,-0.0659,-0.0696,-0.066,-0.0673,-0.0637,-0.0579,-0.0548,-0.0443,-0.0385,-0.0205,-0.0075,0.0058,0.022,0.0252,0.0323,0.0354,0.0314,0.0305,0.0346,0.034,0.039,0.0389,0.0388,0.0388,0,-0.065,-0.0656,-0.0697,-0.0711,-0.0723,-0.0751,-0.0749,-0.0744,-0.0683,-0.0636,-0.0615,-0.0459,-0.0289,-0.0111,0.0111,0.0203,0.0362,0.0414,0.0343,0.0368,0.0394,0.0385,0.0489,0.0489,0.0489,0.0489,0.0488,0,-0.0672,-0.0699,-0.0754,-0.0793,-0.0808,-0.0841,-0.086,-0.0811,-0.0793,-0.0671,-0.0648,-0.0484,-0.0363,-0.0074,0.0109,0.0353,0.0386,0.0453,0.0435,0.0387,0.0408,0.0398,0.0388,0.0488,0.0488,0.0488,0.0488,0,-0.0715,-0.0744,-0.078,-0.0866,-0.0911,-0.0944,-0.0958,-0.0948,-0.0865,-0.0813,-0.0658,-0.0492,-0.03,-0.0075,0.0108,0.0287,0.0398,0.0453,0.0454,0.0438,0.0388,0.0406,0.0397,0.0488,0.0488,0.0488,0.0488,0,-0.0752,-0.0796,-0.0856,-0.0923,-0.099,-0.1021,-0.1019,-0.0969,-0.0931,-0.0779,-0.0726,-0.0497,-0.0355,-0.0108,0.0069,0.0229,0.0268,0.0304,0.0314,0.0317,0.0228,0.0137,0.019,0,0,0,0,0,-0.078,-0.0831,-0.0905,-0.0975,-0.104,-0.1071,-0.1069,-0.1043,-0.096,-0.086,-0.0784,-0.0595,-0.0304,-0.0172,-0.0016,0.0047,0.0272,0.023,0.0312,0.0487,0.0487,0.0408,0,0,0,0,0,0,-0.0801,-0.0877,-0.091,-0.1001,-0.1054,-0.111,-0.1109,-0.1051,-0.0978,-0.0871,-0.0715,-0.059,-0.0313,-0.04,-0.0026,0.0027,0.0092,0.0378,0.0381,0.0487,0.0487,0.0487,0.0406,0,0,0,0,0]}]]